Sacramento, CA

4:35 PM PST on February 24, 2017 (GMT -0800)
Sacramento Executive

Weather History for KSAC - September, 2014

Change the Weather History Date:

Tuesday, September 23, 2014

  Actual Average Record
Temperature  
Mean Temperature 75 °F -  
Max Temperature 89 °F 86 °F 103 °F (1964)
Min Temperature 61 °F 55 °F 48 °F (1993)
Degree Days  
Heating Degree Days 0    
Cooling Degree Days 10    
Growing Degree Days 24 (Base 50)    
Moisture  
Dew Point 56 °F    
Average Humidity 58    
Maximum Humidity 87    
Minimum Humidity 29    
Precipitation  
Precipitation 0.00 in 0.01 in 0.22 in (1982)
Month to date precipitation T 0.19  
Year to date precipitation 7.90 12.14  
Since 1 July precipitation 0.01  
Sea Level Pressure  
Sea Level Pressure 29.92 in    
Wind  
Wind Speed 6 mph (South)    
Max Wind Speed 13 mph    
Max Gust Speed 18 mph    
Visibility 10 miles    
Events      
T = Trace of Precipitation, MM = Missing Value Source: NWS Daily Summary

Daily Weather History Graph

Daily Weather History Graph

Search for Another Location

Airport or City:

Trip Planner

Search our weather history database for the weather conditions in past years. The results will help you decide how hot, cold, wet, or windy it might be!

Date:

Astronomy

Sep. 23, 2014 Rise Set
Actual Time 6:54 AM PDT 7:01 PM PDT
Civil Twilight 6:28 AM PDT 7:27 PM PDT
Nautical Twilight 5:57 AM PDT 7:58 PM PDT
Astronomical Twilight 5:25 AM PDT 8:29 PM PDT
Moon 6:23 AM PDT (9/23) 6:43 PM PDT (9/23)
Length of Visible Light 12h 59m
Length of Day
12h 06m
Waning Crescent, 0% of the Moon is Illuminated
Sep 23
Waning Crescent
Sep 23
New
Oct 1
First Quarter
Oct 8
Full
Oct 15
Last Quarter

Hourly Weather History & Observations

Time (PDT) Temp. Heat Index Dew Point Humidity Pressure Visibility Wind Dir Wind Speed Gust Speed Precip Events Conditions
12:53 AM 64.9 °F - 53.1 °F 65% 29.92 in 10.0 mi South 3.5 mph - N/A   Clear
1:53 AM 64.9 °F - 53.1 °F 65% 29.94 in 10.0 mi SSE 4.6 mph - N/A   Clear
2:53 AM 64.0 °F - 53.1 °F 67% 29.93 in 10.0 mi SSE 3.5 mph - N/A   Clear
3:53 AM 63.0 °F - 54.0 °F 72% 29.93 in 10.0 mi SSE 3.5 mph - N/A   Clear
4:53 AM 62.1 °F - 54.0 °F 75% 29.93 in 10.0 mi SE 4.6 mph - N/A   Clear
5:53 AM 61.0 °F - 55.0 °F 81% 29.94 in 10.0 mi SSE 4.6 mph - N/A   Clear
6:53 AM 61.0 °F - 55.9 °F 83% 29.95 in 10.0 mi SSE 5.8 mph - N/A   Clear
7:53 AM 63.0 °F - 57.0 °F 81% 29.96 in 10.0 mi SSE 4.6 mph - N/A   Clear
8:53 AM 66.0 °F - 57.0 °F 73% 29.97 in 10.0 mi South 8.1 mph - N/A   Clear
9:53 AM 70.0 °F - 57.0 °F 63% 29.98 in 10.0 mi SSW 6.9 mph - N/A   Clear
10:53 AM 73.9 °F - 57.0 °F 55% 29.98 in 10.0 mi South 9.2 mph - N/A   Clear
11:53 AM 79.0 °F - 57.0 °F 47% 29.96 in 10.0 mi South 8.1 mph - N/A   Clear
12:53 PM 82.9 °F 82.1 °F 55.9 °F 39% 29.95 in 10.0 mi South 5.8 mph - N/A   Clear
1:53 PM 86.0 °F 84.0 °F 53.1 °F 32% 29.93 in 10.0 mi SW 9.2 mph - N/A   Clear
2:53 PM 88.0 °F 85.7 °F 53.1 °F 30% 29.91 in 10.0 mi WSW 6.9 mph - N/A   Clear
3:53 PM 88.0 °F - 52.0 °F 29% 29.88 in 10.0 mi SW 10.4 mph - N/A   Clear
4:53 PM 88.0 °F - 52.0 °F 29% 29.87 in 10.0 mi SSW 8.1 mph - N/A   Clear
5:53 PM 86.0 °F - 52.0 °F 31% 29.86 in 10.0 mi SW 6.9 mph - N/A   Clear
6:53 PM 82.0 °F - 52.0 °F 35% 29.86 in 10.0 mi SW 4.6 mph - N/A   Clear
7:53 PM 75.9 °F - 60.1 °F 58% 29.87 in 10.0 mi SSW 8.1 mph - N/A   Clear
8:53 PM 72.0 °F - 60.1 °F 66% 29.88 in 10.0 mi South 6.9 mph - N/A   Clear
9:53 PM 68.0 °F - 61.0 °F 78% 29.90 in 10.0 mi SSW 10.4 mph - N/A   Clear
10:53 PM 66.9 °F - 62.1 °F 84% 29.91 in 10.0 mi SSW 8.1 mph - N/A   Clear
11:53 PM 66.0 °F - 62.1 °F 87% 29.92 in 10.0 mi SSW 6.9 mph - N/A   Clear